| time (UTC) | temp F | wind direction | speed knots | gust knots | rain 1hr in | rain 24hr in | rain mn in | humidity % | barometer mb |
| 20260506211529 | 57 | 133 | 1.7 | 9.6 | 0.03 | 0.24 | 0.24 | 97 | 1006.5 |
| 20260506211025 | 57 | 152 | 2.6 | 9.6 | 0.03 | 0.24 | 0.24 | 97 | 1006.5 |
| 20260506210526 | 57 | 134 | 1.7 | 6.1 | 0.02 | 0.23 | 0.23 | 97 | 1006.5 |
| 20260506210032 | 57 | 152 | 0.9 | 6.1 | 0.03 | 0.23 | 0.23 | 97 | 1006.5 |
| 20260506205523 | 57 | 157 | 1.7 | 6.1 | 0.03 | 0.23 | 0.23 | 97 | 1006.6 |
| 20260506205024 | 57 | 141 | 1.7 | 9.6 | 0.03 | 0.23 | 0.23 | 97 | 1006.5 |
| 20260506204523 | 57 | 168 | 2.6 | 9.6 | 0.03 | 0.23 | 0.23 | 97 | 1006.6 |
| 20260506204025 | 57 | 161 | 0.9 | 3.5 | 0.02 | 0.22 | 0.22 | 97 | 1006.6 |
| 20260506203522 | 57 | 173 | 1.7 | 9.6 | 0.02 | 0.22 | 0.22 | 96 | 1006.6 |
| 20260506203022 | 57 | 154 | 3.5 | 9.6 | 0.03 | 0.22 | 0.22 | 96 | 1006.7 |
| 20260506202523 | 57 | 138 | 2.6 | 6.1 | 0.04 | 0.22 | 0.22 | 96 | 1006.6 |
| 20260506202022 | 57 | 115 | 2.6 | 6.1 | 0.06 | 0.22 | 0.22 | 96 | 1006.7 |
| 20260506201525 | 57 | 167 | 1.7 | 7.8 | 0.06 | 0.21 | 0.21 | 96 | 1006.6 |
| 20260506201024 | 57 | 152 | 2.6 | 7.8 | 0.07 | 0.21 | 0.21 | 96 | 1006.7 |
| 20260506200521 | 57 | 120 | 3.5 | 7.8 | 0.08 | 0.21 | 0.21 | 96 | 1006.7 |
| 20260506200034 | 57 | 136 | 2.6 | 7.0 | 0.07 | 0.20 | 0.20 | 96 | 1006.8 |
| 20260506195519 | 57 | 212 | 2.6 | 9.6 | 0.08 | 0.20 | 0.20 | 96 | 1006.8 |
| 20260506195019 | 57 | 173 | 3.5 | 9.6 | 0.09 | 0.20 | 0.20 | 96 | 1006.9 |
| 20260506194519 | 57 | 135 | 1.7 | 7.0 | 0.09 | 0.20 | 0.20 | 96 | 1007.0 |
| 20260506194017 | 57 | 109 | 1.7 | 4.3 | 0.10 | 0.20 | 0.20 | 96 | 1007.0 |
| 20260506193517 | 57 | 135 | 1.7 | 9.6 | 0.10 | 0.20 | 0.20 | 96 | 1007.1 |
| 20260506193017 | 57 | 128 | 1.7 | 6.1 | 0.09 | 0.19 | 0.19 | 96 | 1007.1 |
| 20260506192519 | 57 | 144 | 1.7 | 8.7 | 0.08 | 0.18 | 0.18 | 96 | 1007.1 |
| 20260506192017 | 57 | 141 | 1.7 | 8.7 | 0.06 | 0.16 | 0.16 | 96 | 1007.2 |
| 20260506191516 | 57 | 157 | 0.9 | 3.5 | 0.06 | 0.15 | 0.15 | 95 | 1007.2 |
| 20260506191017 | 57 | 164 | 0.9 | 3.5 | 0.05 | 0.14 | 0.14 | 95 | 1007.2 |
| 20260506190517 | 57 | 158 | 1.7 | 5.2 | 0.05 | 0.13 | 0.13 | 95 | 1007.2 |
| 20260506190015 | 57 | 121 | 0.9 | 5.2 | 0.04 | 0.12 | 0.12 | 95 | 1007.2 |
| 20260506185515 | 57 | 88 | 0.9 | 7.0 | 0.04 | 0.12 | 0.12 | 95 | 1007.2 |
| 20260506185013 | 57 | 143 | 1.7 | 7.0 | 0.03 | 0.11 | 0.11 | 95 | 1007.3 |
| 20260506184513 | 57 | 132 | 1.7 | 7.0 | 0.03 | 0.11 | 0.11 | 95 | 1007.5 |
| 20260506184015 | 57 | 297 | 1.7 | 3.5 | 0.02 | 0.10 | 0.10 | 95 | 1007.6 |
| 20260506183514 | 58 | 132 | 0.0 | 2.6 | 0.03 | 0.10 | 0.10 | 95 | 1007.6 |
| 20260506183113 | 58 | 123 | 0.9 | 2.6 | 0.03 | 0.10 | 0.10 | 95 | 1007.5 |
| 20260506182512 | 58 | 163 | 0.9 | 7.0 | 0.03 | 0.10 | 0.10 | 95 | 1007.6 |
| 20260506182012 | 58 | 146 | 0.9 | 7.0 | 0.03 | 0.10 | 0.10 | 94 | 1007.5 |
| 20260506181516 | 58 | 108 | 0.0 | 5.2 | 0.03 | 0.09 | 0.09 | 94 | 1007.6 |
| 20260506181012 | 58 | 128 | 0.9 | 6.1 | 0.03 | 0.09 | 0.09 | 94 | 1007.7 |
| 20260506180512 | 58 | 131 | 0.9 | 4.3 | 0.02 | 0.08 | 0.08 | 94 | 1007.7 |
| 20260506180017 | 58 | 161 | 0.0 | 3.5 | 0.03 | 0.08 | 0.08 | 94 | 1007.7 |
| 20260506175511 | 58 | 146 | 0.9 | 2.6 | 0.04 | 0.08 | 0.08 | 94 | 1007.6 |
| 20260506175010 | 59 | 148 | 0.9 | 7.0 | 0.05 | 0.08 | 0.08 | 94 | 1007.7 |
| 20260506174511 | 59 | 119 | 1.7 | 7.0 | 0.05 | 0.08 | 0.08 | 94 | 1007.6 |
| 20260506174010 | 59 | 173 | 1.7 | 4.3 | 0.06 | 0.08 | 0.08 | 94 | 1007.6 |
| 20260506173510 | 59 | 141 | 0.9 | 5.2 | 0.06 | 0.07 | 0.07 | 94 | 1007.7 |
| 20260506173009 | 59 | 79 | 1.7 | 6.1 | 0.06 | 0.07 | 0.07 | 94 | 1007.5 |
| 20260506172509 | 59 | 105 | 1.7 | 3.5 | 0.06 | 0.07 | 0.07 | 93 | 1007.7 |
| 20260506172007 | 59 | 84 | 0.0 | 2.6 | 0.06 | 0.07 | 0.07 | 93 | 1007.7 |
| 20260506171506 | 59 | 125 | 0.0 | 2.6 | 0.06 | 0.06 | 0.06 | 93 | 1008.1 |
| 20260506171006 | 59 | 76 | 0.0 | 2.6 | 0.06 | 0.06 | 0.06 | 92 | 1008.1 |
| 20260506170506 | 60 | 118 | 0.0 | 2.6 | 0.05 | 0.05 | 0.06 | 91 | 1008.1 |
| 20260506170004 | 60 | 54 | 0.0 | 4.3 | 0.04 | 0.04 | 0.04 | 91 | 1008.4 |
| 20260506165503 | 60 | 138 | 1.7 | 4.3 | 0.04 | 0.04 | 0.04 | 90 | 1008.8 |
| 20260506165003 | 60 | 132 | 0.9 | 3.5 | 0.03 | 0.03 | 0.03 | 89 | 1008.9 |
| 20260506164503 | 61 | 132 | 1.7 | 3.5 | 0.02 | 0.02 | 0.02 | 89 | 1008.8 |
| 20260506164002 | 61 | 121 | 0.0 | 7.0 | 0.02 | 0.02 | 0.02 | 88 | 1008.9 |
| 20260506163503 | 61 | 123 | 1.7 | 7.0 | 0.01 | 0.01 | 0.01 | 87 | 1009.0 |
| 20260506163004 | 61 | 114 | 0.9 | 2.6 | 0.01 | 0.01 | 0.01 | 87 | 1009.0 |
| 20260506162503 | 62 | 176 | 0.9 | 2.6 | 0.01 | 0.01 | 0.01 | 86 | 1008.7 |
| 20260506162002 | 62 | 152 | 0.9 | 8.7 | 0.00 | 0.00 | 0.00 | 85 | 1008.8 |
| 20260506161100 | 62 | 171 | 2.6 | 6.1 | 0.00 | 0.00 | 0.00 | 83 | 1008.9 |
| 20260506160600 | 62 | 115 | 1.7 | 7.0 | 0.00 | 0.00 | 0.00 | 83 | 1008.8 |
| 20260506160112 | 63 | 131 | 1.7 | 7.0 | 0.00 | 0.00 | 0.00 | 82 | 1008.8 |
| 20260506155559 | 63 | 141 | 0.9 | 9.6 | 0.00 | 0.00 | 0.00 | 81 | 1008.9 |
| 20260506155058 | 63 | 171 | 1.7 | 9.6 | 0.00 | 0.00 | 0.00 | 80 | 1009.0 |
| 20260506154557 | 63 | 173 | 0.9 | 5.2 | 0.00 | 0.00 | 0.00 | 81 | 1009.1 |
| 20260506154057 | 62 | 123 | 0.9 | 6.1 | 0.00 | 0.00 | 0.00 | 81 | 1009.2 |
| 20260506153556 | 62 | 159 | 2.6 | 9.6 | 0.00 | 0.00 | 0.00 | 81 | 1009.3 |
| 20260506153100 | 62 | 143 | 3.5 | 9.6 | 0.00 | 0.00 | 0.00 | 81 | 1009.3 |
| 20260506152555 | 62 | 121 | 1.7 | 7.8 | 0.00 | 0.00 | 0.00 | 81 | 1009.3 |
| 20260506152055 | 62 | 137 | 1.7 | 12.2 | 0.00 | 0.00 | 0.00 | 81 | 1009.3 |
| 20260506151554 | 62 | 128 | 2.6 | 12.2 | 0.00 | 0.00 | 0.00 | 81 | 1009.3 |
| 20260506151054 | 62 | 145 | 3.5 | 7.8 | 0.00 | 0.00 | 0.00 | 81 | 1009.3 |
| 20260506150555 | 62 | 114 | 3.5 | 7.8 | 0.00 | 0.00 | 0.00 | 81 | 1009.4 |
| 20260506150053 | 62 | 155 | 2.6 | 8.7 | 0.00 | 0.00 | 0.00 | 82 | 1009.4 |
| 20260506145556 | 62 | 144 | 1.7 | 7.0 | 0.00 | 0.00 | 0.00 | 83 | 1009.4 |
| 20260506145051 | 61 | 138 | 1.7 | 7.0 | 0.00 | 0.00 | 0.00 | 83 | 1009.4 |
| 20260506144550 | 61 | 168 | 2.6 | 7.8 | 0.00 | 0.00 | 0.00 | 84 | 1009.5 |
| 20260506144049 | 61 | 105 | 2.6 | 8.7 | 0.00 | 0.00 | 0.00 | 84 | 1009.6 |
| 20260506143550 | 61 | 196 | 2.6 | 8.7 | 0.00 | 0.00 | 0.00 | 84 | 1009.6 |
| 20260506143049 | 61 | 144 | 1.7 | 7.8 | 0.00 | 0.00 | 0.00 | 84 | 1009.7 |
| 20260506142548 | 60 | 161 | 1.7 | 7.8 | 0.00 | 0.00 | 0.00 | 85 | 1009.7 |
| 20260506142048 | 60 | 135 | 1.7 | 7.8 | 0.00 | 0.00 | 0.00 | 85 | 1009.7 |
| 20260506141605 | 60 | 134 | 2.6 | 6.1 | 0.00 | 0.00 | 0.00 | 85 | 1009.6 |
| 20260506141049 | 60 | 119 | 1.7 | 10.4 | 0.00 | 0.00 | 0.00 | 86 | 1009.6 |
| 20260506140551 | 60 | 142 | 0.9 | 10.4 | 0.00 | 0.00 | 0.00 | 86 | 1009.6 |
| 20260506140048 | 60 | 123 | 2.6 | 5.2 | 0.00 | 0.00 | 0.00 | 86 | 1009.7 |
| 20260506135547 | 60 | 100 | 0.9 | 7.0 | 0.00 | 0.00 | 0.00 | 86 | 1009.4 |
| 20260506135046 | 60 | 99 | 2.6 | 7.8 | 0.00 | 0.00 | 0.00 | 86 | 1009.4 |
| 20260506134546 | 60 | 103 | 2.6 | 7.8 | 0.00 | 0.00 | 0.00 | 86 | 1009.4 |
| 20260506134046 | 60 | 208 | 0.9 | 7.0 | 0.00 | 0.00 | 0.00 | 86 | 1009.4 |
| 20260506133547 | 60 | 112 | 1.7 | 6.1 | 0.00 | 0.00 | 0.00 | 87 | 1009.4 |
| 20260506133046 | 59 | 146 | 1.7 | 6.1 | 0.00 | 0.00 | 0.00 | 87 | 1009.2 |
| 20260506132545 | 59 | 201 | 1.7 | 5.2 | 0.00 | 0.00 | 0.00 | 87 | 1009.3 |
| 20260506132047 | 59 | 165 | 1.7 | 5.2 | 0.00 | 0.00 | 0.00 | 87 | 1009.2 |
| 20260506131544 | 59 | 131 | 1.7 | 2.6 | 0.00 | 0.00 | 0.00 | 88 | 1009.3 |
| 20260506131043 | 59 | 134 | 0.0 | 2.6 | 0.00 | 0.00 | 0.00 | 88 | 1009.3 |
| 20260506130542 | 59 | 164 | 0.0 | 2.6 | 0.00 | 0.00 | 0.00 | 88 | 1009.4 |
| 20260506130041 | 58 | 88 | 0.9 | 7.8 | 0.00 | 0.00 | 0.00 | 89 | 1009.5 |
| 20260506125540 | 58 | 115 | 0.0 | 3.5 | 0.00 | 0.00 | 0.00 | 89 | 1009.6 |
| 20260506125039 | 58 | 169 | 0.9 | 3.5 | 0.00 | 0.00 | 0.00 | 89 | 1009.6 |
| 20260506124541 | 58 | 162 | 0.0 | 3.5 | 0.00 | 0.00 | 0.00 | 90 | 1009.6 |
| 20260506124140 | 58 | 148 | 0.9 | 5.2 | 0.00 | 0.00 | 0.00 | 90 | 1009.6 |
| 20260506123539 | 58 | 99 | 0.9 | 5.2 | 0.00 | 0.00 | 0.00 | 90 | 1009.5 |
| 20260506123043 | 58 | 140 | 1.7 | 3.5 | 0.00 | 0.00 | 0.00 | 90 | 1009.7 |
| 20260506122538 | 57 | 102 | 0.0 | 3.5 | 0.00 | 0.00 | 0.00 | 91 | 1009.8 |
| 20260506122038 | 57 | 114 | 0.0 | 3.5 | 0.00 | 0.00 | 0.00 | 91 | 1009.9 |
| 20260506121538 | 57 | 163 | 0.0 | 4.3 | 0.00 | 0.00 | 0.00 | 91 | 1010.0 |
| 20260506121037 | 57 | 31 | 0.9 | 4.3 | 0.00 | 0.00 | 0.00 | 92 | 1010.0 |
| 20260506120537 | 57 | 132 | 0.0 | 3.5 | 0.00 | 0.00 | 0.00 | 92 | 1009.9 |
| 20260506120104 | 56 | 153 | 0.0 | 2.6 | 0.00 | 0.00 | 0.00 | 92 | 1009.9 |
| 20260506115535 | 56 | 153 | 0.9 | 2.6 | 0.00 | 0.00 | 0.00 | 93 | 1009.8 |
| 20260506115035 | 56 | 143 | 0.0 | 1.7 | 0.00 | 0.00 | 0.00 | 93 | 1009.8 |
| 20260506114533 | 56 | 143 | 0.0 | 2.6 | 0.00 | 0.00 | 0.00 | 93 | 1009.7 |
| 20260506114034 | 56 | 143 | 0.0 | 3.5 | 0.00 | 0.00 | 0.00 | 93 | 1009.9 |
| 20260506113533 | 56 | 134 | 0.9 | 3.5 | 0.00 | 0.00 | 0.00 | 93 | 1009.9 |
| 20260506113034 | 55 | 201 | 0.0 | 3.5 | 0.00 | 0.00 | 0.00 | 93 | 1009.9 |
| 20260506112532 | 55 | 223 | 0.0 | 3.5 | 0.00 | 0.00 | 0.00 | 93 | 1009.9 |
| 20260506112031 | 55 | 120 | 0.0 | 2.6 | 0.00 | 0.00 | 0.00 | 93 | 1010.1 |
| 20260506111531 | 55 | 113 | 0.0 | 3.5 | 0.00 | 0.00 | 0.00 | 93 | 1010.1 |
| 20260506111031 | 55 | 207 | 0.0 | 4.3 | 0.00 | 0.00 | 0.00 | 93 | 1010.1 |
| 20260506110532 | 55 | 129 | 1.7 | 4.3 | 0.00 | 0.00 | 0.00 | 93 | 1010.1 |
| 20260506110031 | 55 | 135 | 0.9 | 3.5 | 0.00 | 0.00 | 0.00 | 93 | 1009.9 |
| 20260506105531 | 55 | 129 | 0.0 | 5.2 | 0.00 | 0.00 | 0.00 | 93 | 1009.9 |
| 20260506105029 | 55 | 150 | 0.9 | 5.2 | 0.00 | 0.00 | 0.00 | 93 | 1010.0 |
| 20260506104531 | 54 | 159 | 0.9 | 4.3 | 0.00 | 0.00 | 0.00 | 93 | 1010.2 |
| 20260506104030 | 54 | 163 | 0.9 | 4.3 | 0.00 | 0.00 | 0.00 | 93 | 1010.2 |
| 20260506103530 | 54 | 180 | 0.0 | 3.5 | 0.00 | 0.00 | 0.00 | 93 | 1010.0 |
| 20260506103031 | 54 | 132 | 0.9 | 6.1 | 0.00 | 0.00 | 0.00 | 93 | 1010.0 |
| 20260506102528 | 54 | 120 | 1.7 | 6.1 | 0.00 | 0.00 | 0.00 | 93 | 1010.0 |
| 20260506102028 | 54 | 142 | 1.7 | 4.3 | 0.00 | 0.00 | 0.00 | 93 | 1010.1 |
| 20260506101527 | 54 | 150 | 0.0 | 6.1 | 0.00 | 0.00 | 0.00 | 93 | 1010.1 |
| 20260506101026 | 54 | 150 | 0.9 | 6.1 | 0.00 | 0.00 | 0.00 | 93 | 1010.0 |
| 20260506100526 | 54 | 164 | 0.9 | 4.3 | 0.00 | 0.00 | 0.00 | 93 | 1009.8 |
| 20260506100025 | 54 | 158 | 0.9 | 2.6 | 0.00 | 0.00 | 0.00 | 93 | 1009.8 |
| 20260506095526 | 54 | 140 | 0.0 | 3.5 | 0.00 | 0.00 | 0.00 | 92 | 1009.7 |
| 20260506095024 | 54 | 157 | 0.0 | 3.5 | 0.00 | 0.00 | 0.00 | 92 | 1009.7 |
| 20260506094532 | 54 | 165 | 0.0 | 3.5 | 0.00 | 0.00 | 0.00 | 92 | 1009.8 |
| 20260506094022 | 54 | 140 | 0.0 | 2.6 | 0.00 | 0.00 | 0.00 | 91 | 1009.7 |
| 20260506093522 | 54 | 173 | 0.0 | 1.7 | 0.00 | 0.00 | 0.00 | 91 | 1009.7 |
| 20260506093039 | 55 | 142 | 0.0 | 1.7 | 0.00 | 0.00 | 0.00 | 91 | 1009.8 |
| 20260506092521 | 55 | 144 | 0.0 | 3.5 | 0.00 | 0.00 | 0.00 | 91 | 1009.7 |
| 20260506092021 | 55 | 144 | 0.0 | 3.5 | 0.00 | 0.00 | 0.00 | 91 | 1009.7 |
| 20260506091523 | 55 | 144 | 0.9 | 3.5 | 0.00 | 0.00 | 0.00 | 90 | 1009.7 |
| 20260506091019 | 55 | 170 | 0.9 | 4.3 | 0.00 | 0.00 | 0.00 | 90 | 1009.8 |
| 20260506090519 | 55 | 153 | 1.7 | 3.5 | 0.00 | 0.00 | 0.00 | 90 | 1009.7 |
| 20260506090017 | 55 | 134 | 0.0 | 3.5 | 0.00 | 0.00 | 0.00 | 90 | 1009.8 |
| 20260506085517 | 55 | 157 | 0.9 | 4.3 | 0.00 | 0.00 | 0.00 | 89 | 1009.9 |
| 20260506085018 | 55 | 132 | 1.7 | 4.3 | 0.00 | 0.00 | 0.00 | 89 | 1009.8 |
| 20260506084516 | 55 | 133 | 0.9 | 3.5 | 0.00 | 0.00 | 0.00 | 89 | 1009.9 |
| 20260506084016 | 55 | 139 | 0.9 | 2.6 | 0.00 | 0.00 | 0.00 | 89 | 1009.9 |
| 20260506083519 | 55 | 160 | 0.0 | 2.6 | 0.00 | 0.00 | 0.00 | 89 | 1009.9 |
| 20260506083016 | 55 | 117 | 0.9 | 3.5 | 0.00 | 0.00 | 0.00 | 88 | 1009.9 |
| 20260506082515 | 55 | 157 | 0.0 | 6.1 | 0.00 | 0.00 | 0.00 | 88 | 1009.9 |
| 20260506082014 | 55 | 164 | 0.9 | 3.5 | 0.00 | 0.00 | 0.00 | 88 | 1010.0 |
| 20260506081516 | 55 | 159 | 0.0 | 4.3 | 0.00 | 0.00 | 0.00 | 88 | 1010.0 |
| 20260506081014 | 55 | 161 | 0.9 | 5.2 | 0.00 | 0.00 | 0.00 | 88 | 1010.0 |
| 20260506080515 | 55 | 128 | 0.9 | 3.5 | 0.00 | 0.00 | 0.00 | 88 | 1009.9 |
| 20260506073514 | 55 | 147 | 0.0 | 3.5 | 0.00 | 0.00 | 0.00 | 86 | 1009.9 |
| 20260506073011 | 55 | 148 | 0.9 | 4.3 | 0.00 | 0.00 | 0.00 | 86 | 1010.0 |
| 20260506072511 | 55 | 111 | 0.9 | 3.5 | 0.00 | 0.00 | 0.00 | 85 | 1010.0 |
| 20260506072011 | 56 | 111 | 0.0 | 0.9 | 0.00 | 0.00 | 0.00 | 84 | 1010.0 |
| 20260506071510 | 56 | 111 | 0.0 | 0.9 | 0.00 | 0.00 | 0.00 | 84 | 1010.0 |
| 20260506071008 | 56 | 111 | 0.0 | 0.9 | 0.00 | 0.00 | 0.00 | 83 | 1010.0 |
| 20260506070509 | 56 | 111 | 0.0 | 1.7 | 0.00 | 0.00 | 0.00 | 83 | 1010.0 |
| 20260506062501 | 58 | 106 | 0.0 | 1.7 | 0.00 | 0.00 | 0.00 | 80 | 1010.0 |
| 20260506062104 | 58 | 105 | 0.0 | 1.7 | 0.00 | 0.00 | 0.00 | 80 | 1010.0 |
| 20260506061603 | 58 | 105 | 0.0 | 1.7 | 0.00 | 0.00 | 0.00 | 79 | 1010.1 |
| 20260506061059 | 58 | 105 | 0.0 | 1.7 | 0.00 | 0.00 | 0.00 | 79 | 1010.0 |
| 20260506060557 | 59 | 105 | 0.0 | 1.7 | 0.00 | 0.00 | 0.00 | 79 | 1010.1 |
| 20260506051050 | 60 | 170 | 0.9 | 2.6 | 0.00 | 0.00 | 0.00 | 76 | 1010.4 |
| 20260506050550 | 60 | 121 | 0.9 | 5.2 | 0.00 | 0.00 | 0.00 | 76 | 1010.4 |
| 20260506045047 | 60 | 136 | 0.0 | 4.3 | 0.00 | 0.00 | 0.00 | 75 | 1010.4 |
| 20260506044556 | 60 | 136 | 0.0 | 7.0 | 0.00 | 0.00 | 0.00 | 75 | 1010.4 |
| 20260506044046 | 60 | 115 | 2.6 | 7.0 | 0.00 | 0.00 | 0.00 | 75 | 1010.4 |
| 20260506043546 | 60 | 127 | 0.9 | 3.5 | 0.00 | 0.00 | 0.00 | 75 | 1010.5 |
| 20260506043048 | 60 | 150 | 1.7 | 3.5 | 0.00 | 0.00 | 0.00 | 75 | 1010.6 |
| 20260506042546 | 60 | 132 | 0.9 | 3.5 | 0.00 | 0.00 | 0.00 | 75 | 1010.5 |
| 20260506042045 | 60 | 112 | 0.9 | 5.2 | 0.00 | 0.00 | 0.00 | 75 | 1010.4 |
| 20260506041552 | 61 | 80 | 0.0 | 2.6 | 0.00 | 0.00 | 0.00 | 75 | 1010.4 |
| 20260506041047 | 61 | 119 | 0.0 | 4.3 | 0.00 | 0.00 | 0.00 | 74 | 1010.6 |
| 20260506040544 | 61 | 173 | 0.9 | 4.3 | 0.00 | 0.00 | 0.00 | 73 | 1010.6 |
| 20260506040044 | 61 | 128 | 0.9 | 3.5 | 0.00 | 0.00 | 0.00 | 73 | 1010.6 |
| 20260506035544 | 61 | 144 | 1.7 | 3.5 | 0.00 | 0.00 | 0.00 | 73 | 1010.6 |
| 20260506035043 | 61 | 142 | 0.9 | 3.5 | 0.00 | 0.00 | 0.00 | 73 | 1010.6 |
| 20260506034544 | 61 | 136 | 1.7 | 3.5 | 0.00 | 0.00 | 0.00 | 72 | 1010.6 |
| 20260506034041 | 61 | 128 | 0.9 | 4.3 | 0.00 | 0.00 | 0.00 | 72 | 1010.6 |
| 20260506033541 | 61 | 133 | 1.7 | 6.1 | 0.00 | 0.00 | 0.00 | 72 | 1010.7 |
| 20260506033041 | 61 | 126 | 1.7 | 6.1 | 0.00 | 0.00 | 0.00 | 72 | 1010.7 |
| 20260506032541 | 62 | 128 | 1.7 | 4.3 | 0.00 | 0.00 | 0.00 | 72 | 1010.7 |
| 20260506032041 | 62 | 149 | 1.7 | 4.3 | 0.00 | 0.00 | 0.00 | 72 | 1010.7 |
| 20260506031554 | 62 | 162 | 0.9 | 4.3 | 0.00 | 0.00 | 0.00 | 72 | 1010.6 |
| 20260506031040 | 62 | 157 | 0.9 | 3.5 | 0.00 | 0.00 | 0.00 | 71 | 1010.6 |
| 20260506030643 | 62 | 167 | 1.7 | 7.0 | 0.00 | 0.00 | 0.00 | 71 | 1010.7 |
| 20260506030055 | 62 | 138 | 0.9 | 8.7 | 0.00 | 0.00 | 0.00 | 71 | 1010.6 |
| 20260506025539 | 62 | 161 | 2.6 | 8.7 | 0.00 | 0.00 | 0.00 | 71 | 1010.6 |
| 20260506025039 | 62 | 167 | 2.6 | 7.8 | 0.00 | 0.00 | 0.00 | 71 | 1010.6 |
| 20260506024539 | 61 | 126 | 1.7 | 4.3 | 0.00 | 0.00 | 0.00 | 71 | 1010.6 |
| 20260506024039 | 61 | 153 | 0.9 | 5.2 | 0.00 | 0.00 | 0.00 | 71 | 1010.6 |
| 20260506023539 | 61 | 127 | 1.7 | 4.3 | 0.00 | 0.00 | 0.00 | 71 | 1010.6 |
| 20260506023039 | 62 | 130 | 0.9 | 2.6 | 0.00 | 0.00 | 0.00 | 72 | 1010.4 |
| 20260506022538 | 62 | 116 | 0.9 | 2.6 | 0.00 | 0.00 | 0.00 | 73 | 1010.6 |
| 20260506022038 | 62 | 114 | 0.9 | 2.6 | 0.00 | 0.00 | 0.00 | 72 | 1010.4 |
| 20260506021538 | 62 | 112 | 0.9 | 3.5 | 0.00 | 0.00 | 0.00 | 71 | 1010.3 |
| 20260506021038 | 62 | 112 | 0.0 | 3.5 | 0.00 | 0.00 | 0.00 | 70 | 1010.5 |
| 20260506020538 | 62 | 146 | 0.0 | 2.6 | 0.00 | 0.00 | 0.00 | 70 | 1010.5 |
| 20260506020037 | 62 | 146 | 0.9 | 2.6 | 0.00 | 0.00 | 0.00 | 70 | 1010.2 |
| 20260506015537 | 63 | 153 | 0.9 | 2.6 | 0.00 | 0.00 | 0.00 | 70 | 1010.3 |
| 20260506015037 | 63 | 153 | 0.0 | 2.6 | 0.00 | 0.00 | 0.00 | 70 | 1010.3 |
| 20260506014537 | 63 | 153 | 0.9 | 2.6 | 0.00 | 0.00 | 0.00 | 70 | 1010.4 |
| 20260506014038 | 63 | 153 | 0.0 | 2.6 | 0.00 | 0.00 | 0.00 | 70 | 1010.3 |
| 20260506013536 | 63 | 143 | 0.9 | 2.6 | 0.00 | 0.00 | 0.00 | 70 | 1010.4 |
| 20260506013041 | 63 | 157 | 0.9 | 2.6 | 0.00 | 0.00 | 0.00 | 70 | 1010.4 |
| 20260506012536 | 63 | 157 | 0.9 | 5.2 | 0.00 | 0.00 | 0.00 | 69 | 1010.3 |
| 20260506012035 | 63 | 166 | 0.9 | 6.1 | 0.00 | 0.00 | 0.00 | 69 | 1010.3 |
| 20260506011536 | 63 | 111 | 0.9 | 2.6 | 0.00 | 0.00 | 0.00 | 69 | 1010.2 |
| 20260506011036 | 63 | 144 | 0.9 | 2.6 | 0.00 | 0.00 | 0.00 | 69 | 1010.2 |
| 20260506010536 | 63 | 144 | 0.9 | 2.6 | 0.00 | 0.00 | 0.00 | 69 | 1010.1 |
| 20260506010036 | 63 | 132 | 0.0 | 2.6 | 0.00 | 0.00 | 0.00 | 69 | 1010.1 |
| 20260506005535 | 64 | 132 | 0.9 | 2.6 | 0.00 | 0.00 | 0.00 | 67 | 1010.0 |
| 20260506005036 | 64 | 185 | 0.9 | 4.3 | 0.00 | 0.00 | 0.00 | 67 | 1009.9 |
| 20260506004604 | 64 | 132 | 0.9 | 4.3 | 0.00 | 0.00 | 0.00 | 67 | 1009.9 |
| 20260506004034 | 64 | 128 | 0.9 | 3.5 | 0.00 | 0.00 | 0.00 | 66 | 1009.8 |
| 20260506003534 | 64 | 128 | 1.7 | 7.0 | 0.00 | 0.00 | 0.00 | 66 | 1009.8 |
| 20260506003034 | 65 | 182 | 1.7 | 7.0 | 0.00 | 0.00 | 0.00 | 66 | 1009.7 |
| 20260506002534 | 65 | 130 | 1.7 | 3.5 | 0.00 | 0.00 | 0.00 | 65 | 1009.7 |
| 20260506002041 | 65 | 140 | 0.9 | 3.5 | 0.00 | 0.00 | 0.00 | 65 | 1009.5 |
| 20260506001634 | 65 | 200 | 0.9 | 6.1 | 0.00 | 0.00 | 0.00 | 64 | 1009.5 |
| 20260506001034 | 65 | 179 | 0.9 | 7.0 | 0.00 | 0.00 | 0.00 | 64 | 1009.4 |
| 20260506000532 | 65 | 130 | 1.7 | 7.8 | 0.00 | 0.00 | 0.00 | 63 | 1009.4 |
| 20260506000034 | 66 | 153 | 1.7 | 7.8 | 0.00 | 0.00 | 0.00 | 64 | 1009.3 |
| 20260505235532 | 66 | 165 | 0.9 | 7.8 | 0.00 | 0.00 | 0.00 | 64 | 1009.2 |
| 20260505235032 | 66 | 167 | 1.7 | 7.8 | 0.00 | 0.00 | 0.00 | 63 | 1009.1 |
| 20260505234602 | 66 | 159 | 0.9 | 3.5 | 0.00 | 0.00 | 0.00 | 64 | 1009.0 |
| 20260505234032 | 66 | 132 | 0.9 | 7.8 | 0.00 | 0.00 | 0.00 | 63 | 1008.9 |
| 20260505233532 | 67 | 150 | 1.7 | 4.3 | 0.00 | 0.00 | 0.00 | 62 | 1008.9 |
| 20260505233032 | 67 | 128 | 0.9 | 7.0 | 0.00 | 0.00 | 0.00 | 63 | 1008.8 |
| 20260505232531 | 67 | 103 | 1.7 | 7.0 | 0.00 | 0.00 | 0.00 | 63 | 1008.8 |
| 20260505232034 | 67 | 140 | 1.7 | 6.1 | 0.00 | 0.00 | 0.00 | 62 | 1008.8 |
| 20260505231535 | 67 | 146 | 1.7 | 6.1 | 0.00 | 0.00 | 0.00 | 61 | 1008.7 |
| 20260505231031 | 68 | 144 | 1.7 | 5.2 | 0.00 | 0.00 | 0.00 | 61 | 1008.6 |
| 20260505230531 | 68 | 188 | 1.7 | 7.0 | 0.00 | 0.00 | 0.00 | 60 | 1008.5 |
| 20260505230030 | 68 | 126 | 0.9 | 7.8 | 0.00 | 0.00 | 0.00 | 60 | 1008.5 |
| 20260505225534 | 69 | 123 | 1.7 | 7.8 | 0.00 | 0.00 | 0.00 | 59 | 1008.4 |
| 20260505225029 | 69 | 56 | 0.9 | 6.1 | 0.00 | 0.00 | 0.00 | 59 | 1008.4 |
| 20260505224533 | 70 | 141 | 1.7 | 8.7 | 0.00 | 0.00 | 0.00 | 58 | 1008.3 |
| 20260505224029 | 70 | 148 | 1.7 | 8.7 | 0.00 | 0.00 | 0.00 | 57 | 1008.2 |
| 20260505223530 | 71 | 129 | 1.7 | 6.1 | 0.00 | 0.00 | 0.00 | 55 | 1008.2 |
| 20260505223029 | 72 | 144 | 1.7 | 6.1 | 0.00 | 0.00 | 0.00 | 55 | 1008.1 |
| 20260505222530 | 72 | 136 | 0.9 | 8.7 | 0.00 | 0.00 | 0.00 | 54 | 1008.0 |
| 20260505222030 | 72 | 149 | 0.9 | 8.7 | 0.00 | 0.00 | 0.00 | 54 | 1008.0 |
| 20260505221529 | 73 | 113 | 1.7 | 8.7 | 0.00 | 0.00 | 0.00 | 52 | 1008.0 |
| 20260505221028 | 73 | 53 | 0.9 | 6.1 | 0.00 | 0.00 | 0.00 | 52 | 1008.0 |
| 20260505220528 | 73 | 165 | 2.6 | 6.1 | 0.00 | 0.00 | 0.00 | 51 | 1008.0 |
| 20260505220028 | 73 | 128 | 0.9 | 6.1 | 0.00 | 0.00 | 0.00 | 52 | 1007.9 |
| 20260505215529 | 73 | 119 | 1.7 | 6.1 | 0.00 | 0.00 | 0.00 | 51 | 1008.0 |
| 20260505215027 | 74 | 57 | 1.7 | 6.1 | 0.00 | 0.00 | 0.00 | 51 | 1007.9 |
| 20260505214533 | 74 | 132 | 1.7 | 5.2 | 0.00 | 0.00 | 0.00 | 51 | 1007.8 |
| 20260505214032 | 74 | 121 | 1.7 | 7.0 | 0.00 | 0.00 | 0.00 | 50 | 1007.8 |
| 20260505213527 | 74 | 80 | 1.7 | 9.6 | 0.00 | 0.00 | 0.00 | 51 | 1008.0 |
| 20260505213026 | 74 | 120 | 5.2 | 10.4 | 0.00 | 0.00 | 0.00 | 48 | 1008.0 |
| 20260505212527 | 74 | 118 | 3.5 | 13.0 | 0.00 | 0.00 | 0.00 | 47 | 1008.0 |
| 20260505212027 | 75 | 134 | 5.2 | 13.0 | 0.00 | 0.00 | 0.00 | 47 | 1008.2 |